2000 RS11 

Epoch 2000 Sep. 13.0 TT = JDT 2451800.5                 Nakano

M 283.32093              (2000.0)            P               Q

n   0.67911307     Peri.  301.63713     -0.41090519     -0.91082898

a   1.2818621      Node   172.30865     +0.90386241     -0.41264104

e   0.3211780      Incl.   17.09316     +0.11912036     -0.01085989

P   1.45           H   17.9           G   0.15           U   *

Residuals in seconds of arc 

000902 704  1.1-  0.1+    000910 046  0.6+  0.8-    000913 046  0.2+  0.9-  

000902 704  0.4+  0.2+    000910 046  0.5+  0.7+    000918 413  0.3+  0.2-  

000902 704  0.1-  0.1-    000911 557  1.5-  0.4-    000918 413  0.3+  0.2-  

000904 704  0.4+  0.2+    000911 557  1.6-  0.5+    000918 413  0.2+  0.3-  

000904 704  1.2+  0.4+    000911 557  0.9-  0.4+    000926 670  0.5+  0.7+  

000904 704  0.2+  0.5-    000911 118  0.4+  0.2+    000926 670  0.5-  0.8+  

000904 704  0.3-  0.6-    000911 118  1.3+  0.6-    000927 360  0.1-  0.1-  

000910 046  1.4-  0.3+    000911 118  0.4+  0.1-    000927 360  0.1+  0.6-  

000910 046  0.2-  0.3+    000913 046  0.2+  0.9+    000927 360  0.3-  0.4-  

000910 046  0.4+  0.0     000913 046  0.1-  0.6+                            

000910 046  0.9+  0.3+    000913 046  0.4-  0.7-                            

  

NAKANO

         **** Don't distribute anyone except personal use only ****

                (C) Copyright 2000 OAA/ComputingSection

write mail from CFAD0::NAKANO on 2000-09-28 21:55:33(JST).

 





–ß‚è‚Ü‚·B